[Iaude] MPEC U59: 2017 UO [a=2.55,e=0.89,i=8.6,H=20.4]

mpec at mpcdb1.cfa.harvard.edu mpec at mpcdb1.cfa.harvard.edu
Wed Oct 18 20:33:17 EDT 2017


M.P.E.C. 2017-U59                                Issued 2017 Oct. 19, 00:29 UT
 
     The Minor Planet Electronic Circulars contain information on unusual
         minor planets and routine data on comets.  They are published
    on behalf of Division F of the International Astronomical Union by the
          Minor Planet Center, Smithsonian Astrophysical Observatory,
                          Cambridge, MA 02138, U.S.A.

             Prepared using the Tamkin Foundation Computer Network

                              MPC at CFA.HARVARD.EDU
            URL http://www.minorplanetcenter.net/    ISSN 1523-6714


                                    2017 UO
 
Observations:
     K17U00O  C2017 10 14.59492 05 34 43.56 +51 37 48.8          18.9 oLEU059T05
     K17U00O  C2017 10 14.60030 05 34 31.63 +51 37 30.8          18.7 oLEU059T05
     K17U00O  C2017 10 14.60656 05 34 17.67 +51 37 08.9          18.6 oLEU059T05
     K17U00O  C2017 10 14.61201 05 34 05.55 +51 36 50.5          17.8 oLEU059T05
     K17U00O  C2017 10 14.61777 05 33 52.71 +51 36 29.5          18.9 oLEU059T05
     K17U00O* C2017 10 16.53614 04 30 24.74 +48 42 37.8          18.5 oLEU059T08
     K17U00O  C2017 10 16.55002 04 29 59.94 +48 41 00.1          18.3 oLEU059T08
     K17U00O  C2017 10 16.55979 04 29 42.51 +48 39 50.4          18.4 oLEU059T08
     K17U00O  C2017 10 16.56972 04 29 24.83 +48 38 40.5          18.1 oLEU059T08
     K17U00O  C2017 10 16.91256 04 19 43.58 +47 56 42.6                qEU059246
     K17U00O  C2017 10 16.91268 04 19 43.31 +47 56 41.8                qEU059246
     K17U00O  C2017 10 16.91281 04 19 43.13 +47 56 40.5                qEU059246
     K17U00O  C2017 10 16.91293 04 19 42.90 +47 56 40.1                qEU059246
     K17U00O  C2017 10 16.91306 04 19 42.70 +47 56 39.0                qEU059246
     K17U00O  C2017 10 16.91319 04 19 42.49 +47 56 38.3          18.5 RqEU059246
     K17U00O  C2017 10 16.91332 04 19 42.31 +47 56 37.1                qEU059246
     K17U00O KC2017 10 16.97698 04 17 56.39 +47 48 52.6          17.9  qEU059104
     K17U00O KC2017 10 16.97984 04 17 51.63 +47 48 31.5          17.9  qEU059104
     K17U00O KC2017 10 16.98193 04 17 48.15 +47 48 15.9          17.9  qEU059104
     K17U00O KC2017 10 16.98197 04 17 48.07 +47 48 15.3          18.4  tEU059K63
     K17U00O KC2017 10 16.98437 04 17 44.08 +47 47 57.6          18.4  tEU059K63
     K17U00O KC2017 10 16.98694 04 17 39.82 +47 47 38.6          18.3  tEU059K63
     K17U00O KC2017 10 17.06078 04 15 36.98 +47 38 24.4          18.0  oEU059K88
     K17U00O KC2017 10 17.06314 04 15 33.11 +47 38 06.4          18.2  oEU059K88
     K17U00O KC2017 10 17.06550 04 15 29.24 +47 37 48.8          18.0  oEU059K88
     K17U00O KC2017 10 17.10604 04 14 22.51 +47 32 39.6          18.2 VtEU059L04
     K17U00O KC2017 10 17.11785 04 14 03.24 +47 31 08.8          18.3 VtEU059L04
     K17U00O KC2017 10 17.18945 04 12 07.96 +47 21 59.7          18.2 GUEU059204
     K17U00O KC2017 10 17.19130 04 12 04.99 +47 21 45.5                UEU059204
     K17U00O KC2017 10 17.19284 04 12 02.52 +47 21 33.4                UEU059204
     K17U00O KC2017 10 17.19476 04 11 59.44 +47 21 18.4                UEU059204
     K17U00O KC2017 10 17.34503 04 08 05.15 +47 02 11.8          18.4 RuEU059850
     K17U00O KC2017 10 17.35251 04 07 53.35 +47 01 13.9          18.3 RuEU059850
     K17U00O KC2017 10 17.35929 04 07 42.57 +47 00 17.2          18.6 VqEU059W25
     K17U00O KC2017 10 17.35948 04 07 42.36 +47 00 18.6          18.5 RuEU059850
     K17U00O KC2017 10 17.36601 04 07 31.97 +46 59 24.4          18.4 VqEU059W25
     K17U00O KC2017 10 17.36781 04 07 29.22 +46 59 13.7          17.9 RuEU059850
     K17U00O KC2017 10 17.77897 03 57 16.59 +46 04 11.1          18.1 RUEU059K51
     K17U00O KC2017 10 17.77994 03 57 15.17 +46 04 03.3          18.2 RUEU059K51
     K17U00O KC2017 10 17.78088 03 57 13.83 +46 03 56.1          18.3 RUEU059K51
     K17U00O KC2017 10 17.83056 03 56 02.19 +45 57 23.5          18.5 RqEU059160
     K17U00O KC2017 10 17.83275 03 55 59.07 +45 57 05.7          18.5 RqEU059160
     K17U00O KC2017 10 17.83383 03 55 57.49 +45 56 57.7          17.6 RqEU059160
     K17U00O KC2017 10 17.83493 03 55 55.91 +45 56 48.9          17.6 RqEU059160
     K17U00O KC2017 10 17.83710 03 55 52.77 +45 56 31.8          17.7 RqEU059160
     K17U00O  C2017 10 17.90874003 54 09.63 +45 47 00.9          18.4 VSEU059L01
     K17U00O  C2017 10 17.90928603 54 08.85 +45 46 56.7          18.1 VSEU059L01
     K17U00O  C2017 10 17.91037303 54 07.30 +45 46 48.1          18.0 VSEU059L01
     K17U00O  C2017 10 17.91084503 54 06.64 +45 46 44.0          18.2 VSEU059L01
     K17U00O KC2017 10 18.77786103 35 00.41 +43 47 06.6          18.3 RUEU059587
     K17U00O KC2017 10 18.77974703 34 58.10 +43 46 51.2                UEU059587
     K17U00O KC2017 10 18.78257603 34 54.61 +43 46 27.7                UEU059587
     K17U00O KC2017 10 18.78540503 34 51.14 +43 46 04.4                UEU059587
     K17U00O  C2017 10 18.90447 03 32 25.42 +43 29 46.1                qEU059246
     K17U00O  C2017 10 18.90504 03 32 24.72 +43 29 41.0                qEU059246
     K17U00O  C2017 10 18.90517 03 32 24.54 +43 29 40.0                qEU059246
     K17U00O  C2017 10 18.90530 03 32 24.43 +43 29 38.9                qEU059246
     K17U00O  C2017 10 18.90542 03 32 24.27 +43 29 38.2                qEU059246
     K17U00O  C2017 10 18.90555 03 32 24.16 +43 29 37.1                qEU059246
     K17U00O  C2017 10 18.90568 03 32 23.98 +43 29 36.2                qEU059246
     K17U00O  C2017 10 18.90593 03 32 23.68 +43 29 33.5                qEU059246
     K17U00O  C2017 10 18.90623 03 32 23.28 +43 29 31.3          18.9 RqEU059246
 
Observer details:
104 San Marcello Pistoiese.  Observers P. Bacci, M. Maestripieri.  Measurers
    P. Bacci, L. Tesi, G. Fagioli.  0.60-m reflector + CCD.
160 Castelmartini.  Observers M. Jaeger, E. Prosperi, S. Prosperi, W. Vollmann.
    Measurer E. Prosperi.  0.35-m f/10 Schmidt-Cassegrain + CCD.
204 Schiaparelli Observatory.  Observer L. Buzzi.  0.60-m f/4.64 reflector
    + CCD.
246 Klet Observatory-KLENOT.  Observers M. Tichy, J. Ticha.  Measurer M. Tichy.
    1.06-m KLENOT Telescope + CCD.
587 Sormano.  Observers A. Fumagalli, P. Sicoli, A. Testa, G. Ventre.
    Measurer P. Sicoli.  0.5-m f/6.8 reflector + CCD.
850 Cordell-Lorenz Observatory, Sewanee.  Observer D. T. Durig.  0.3-m f/7.6
    Schmidt-Cassegrain + CCD.
K51 Osservatorio del Celado, Castello Tesino.  Observers G. Favero, R. Furgoni.
    Measurer R. Furgoni.  0.80-m f/4 reflector + CCD.
K63 G. Pascoli Observatory, Castelvecchio Pascoli.  Observer R. Bacci.  0.40-m
    f/3.2 Newtonian reflector + CCD.
K88 GINOP-KHK, Piszkesteto.  Observer K. Sarneczky.  0.60-m Schmidt + CCD.
L01 Visnjan Observatory, Tican.  Observers K. Korlevic, F. Fabris, N. Dobric,
    M. Kosic, P. Kukic.  Measurer K. Korlevic.  1.0-m f/2.9 reflector + CCD.
L04 ROASTERR-1 Observatory, Cluj-Napoca.  Observer L. Hudin.  0.3-m f/5.0
    reflector + CCD.
T05 ATLAS-HKO, Haleakala.  Observers L. Denneau, A. Heinze, H. Weiland,
    B. Stalder, J. Tonry.  Measurers L. Denneau, A. Heinze, J. Tonry.  0.5-m
    f/2.0 Schmidt + CCD.
T08 ATLAS-MLO, Mauna Loa.  Observers L. Denneau, A. Heinze, H. Weiland,
    B. Stalder, J. Tonry.  Measurers L. Denneau, A. Heinze, J. Tonry.  0.5-m
    f/2.0 Schmidt + CCD.
W25 RMS Observatory, Cincinnati.  Observer B. Rowe.  0.35-m Schmidt-Cassegrain
    + CCD.
 
Orbital elements:
2017 UO                                                  Earth MOID = 0.0784 AU
Epoch 2017 Sept. 4.0 TT = JDT 2458000.5                 MPC
M   0.72721              (2000.0)            P               Q
n   0.24140984     Peri.   25.07822     -0.14165343     +0.98196960
a   2.5544618      Node   237.00864     -0.93153690     -0.17501358
e   0.8946356      Incl.    8.58320     -0.33492284     +0.07145600
P   4.08           H   20.4           G   0.15           U   7
Residuals in seconds of arc
171014 T05  0.1-  0.1-    171016 K63  0.0   0.3-    171017 160  0.0   0.4+
171014 T05  0.3+  0.3+    171017 K88  0.1-  0.4+    171017 160  0.0   0.3+
171014 T05  0.0   0.1-    171017 K88  0.0   0.3+    171017 160  0.1-  0.4+
171014 T05  0.0   0.4+    171017 K88  0.2+  0.5+    171017 L01  0.5-  0.4-
171014 T05  0.3-  0.5-    171017 L04  0.3-  0.2-    171017 L01  0.5-  0.3-
171016 T08  0.3+  0.9+    171017 L04  0.3-  0.3-    171017 L01  0.4-  0.2-
171016 T08  0.2+  0.4+    171017 204  0.2-  0.3-    171017 L01  0.2-  0.5-
171016 T08  0.1+  0.5-    171017 204  0.1-  0.1-    171018 587  0.2+  0.0
171016 T08  0.1+  0.2-    171017 204  0.0   0.2-    171018 587  0.2+  0.1+
171016 246  0.3+  0.1-    171017 204  0.0   0.2-    171018 587  0.0   0.2-
171016 246  0.4-  0.0     171017 850  0.1+  0.1-    171018 587  0.0   0.3-
171016 246  0.0   0.3-    171017 850  0.2+  0.4+    171018 246  0.1-  0.3+
171016 246  0.3-  0.1+    171017 W25  0.1+  0.2+    171018 246  0.2-  0.1-
171016 246  0.1-  0.0     171017 850  0.2+  0.4-    171018 246  0.4-  0.1-
171016 246  0.0   0.2+    171017 W25  0.1-  0.0     171018 246  0.1+  0.1-
171016 246  0.3+  0.0     171017 850  0.0   0.0     171018 246  0.1-  0.2+
171016 104  0.2+  0.0     171017 K51  0.2+  0.2+    171018 246  0.5+  0.2+
171016 104  0.2+  0.0     171017 K51  0.0   0.0     171018 246  0.2+  0.4+
171016 104  0.2+  0.1-    171017 K51  0.2+  0.3+    171018 246  0.3+  0.3-
171016 K63  0.1-  0.3-    171017 160  0.1-  0.3+    171018 246  0.1-  0.0
171016 K63  0.1-  0.3-    171017 160  0.2+  0.2-

Ephemeris:
2017 UO                  a,e,i = 2.55, 0.89, 9                   q = 0.2691
Date    TT    R. A. (2000) Decl.     Delta      r     Elong.  Phase     V
2017 09 19    11 43 53.1 +11 58 31   0.4442  0.5733    10.4   161.6    29.0
...
2017 10 04    10 19 58.9 +33 25 26   0.2160  0.8774    50.0   119.1    21.6
...
2017 10 12    07 13 27.1 +51 33 32   0.1617  1.0248    95.0    76.0    19.2
...
2017 10 18    03 51 59.6 +45 34 54   0.1833  1.1293   133.0    40.2    18.6
2017 10 19    03 30 30.3 +43 16 45   0.1919  1.1463   138.2    35.4    18.6
2017 10 20    03 12 20.0 +40 58 10   0.2016  1.1631   143.0    31.0    18.6
...
2017 10 26    02 07 36.4 +29 24 24   0.2771  1.2616   162.9    13.4    18.9
...
2017 11 03    01 33 16.4 +20 32 31   0.4048  1.3868   164.9    10.8    19.8
...
2017 11 18    01 13 27.4 +13 27 08   0.6872  1.6053   146.1    20.1    21.6

A. U. Tomatic                (C) Copyright 2017 MPC           M.P.E.C. 2017-U59



More information about the Iaude mailing list